This is the latest recevied weather packets stored in our database for station/object K7TUS-6. If no packets are shown the sender has not sent any weather packets the latest 10 day(s).
| Time | Temp. | Humidity | Pressure | Rain* | Wind** | Luminosity | Snow |
|---|---|---|---|---|---|---|---|
| 1778219407 | 9.44° C | 2% | 985.2 hPa | - | - | - | - |
| 1778219107 | 10° C | 100% | 985.1 hPa | - | - | - | - |
| 1778218806 | 9.44° C | 1% | 986 hPa | - | - | - | - |
| 1778218505 | 9.44° C | 100% | 985.8 hPa | - | - | - | - |
| 1778218205 | 9.44° C | 1% | 985.2 hPa | - | - | - | - |
| 1778217904 | 10° C | 100% | 985.9 hPa | - | - | - | - |
| 1778217604 | 9.44° C | 1% | 985.4 hPa | - | - | - | - |
| 1778217309 | 9.44° C | 100% | 985.1 hPa | - | - | - | - |
| 1778217009 | 9.44° C | 1% | 985.4 hPa | - | - | - | - |
| 1778216708 | 9.44° C | 2% | 986.3 hPa | - | - | - | - |
| 1778216408 | 9.44° C | 2% | 985.6 hPa | - | - | - | - |
| 1778216107 | 9.44° C | 2% | 985.9 hPa | - | - | - | - |
| 1778215807 | 9.44° C | 1% | 985.8 hPa | - | - | - | - |
| 1778215506 | 9.44° C | 1% | 985.6 hPa | - | - | - | - |
| 1778215205 | 9.44° C | 1% | 984.9 hPa | - | - | - | - |
| 1778214905 | 9.44° C | 1% | 986.2 hPa | - | - | - | - |
| 1778214604 | 9.44° C | 1% | 986.4 hPa | - | - | - | - |
| 1778214304 | 9.44° C | 1% | 985.7 hPa | - | - | - | - |
| 1778214003 | 9.44° C | 1% | 985.7 hPa | - | - | - | - |
| 1778213703 | 10° C | 1% | 986.5 hPa | - | - | - | - |
| 1778213408 | 10° C | 1% | 986.5 hPa | - | - | - | - |
| 1778213108 | 9.44° C | 100% | 985.9 hPa | - | - | - | - |
| 1778212807 | 10° C | 1% | 985.5 hPa | - | - | - | - |
| 1778212507 | 10° C | 1% | 985.3 hPa | - | - | - | - |
| 1778212206 | 10° C | 1% | 985.3 hPa | - | - | - | - |
* Rain since midnight (hover to see other rain measurements)
** Current wind speed in m/s (hover to see current wind gust speed)